Time,TemperatureF,DewpointF,PressureIn,WindDirection,WindDirectionDegrees,WindSpeedMPH,WindSpeedGustMPH,Humidity,HourlyPrecipIn,Conditions,Clouds,dailyrainin,SoftwareType,DateUTC
2013-03-08 00:00:00,33.3,26.2,30.39,NNE,32,0.0,1.0,75,0.00,,,0.06,Wunderground v.1.15,2013-03-08 05:00:00,
2013-03-08 00:01:00,33.2,26.1,30.39,NNE,32,0.0,1.0,75,0.00,,,0.00,Wunderground v.1.15,2013-03-08 05:01:00,
2013-03-08 00:07:00,33.1,26.4,30.39,NNE,32,0.0,2.0,76,0.00,,,0.00,Wunderground v.1.15,2013-03-08 05:07:00,
2013-03-08 00:12:00,33.0,26.3,30.39,NNE,32,0.0,1.0,76,0.00,,,0.00,Wunderground v.1.15,2013-03-08 05:12:00,
2013-03-08 00:17:00,33.0,25.9,30.39,NNE,32,0.0,2.0,75,0.00,,,0.00,Wunderground v.1.15,2013-03-08 05:17:00,
2013-03-08 00:23:00,33.0,26.3,30.39,NNE,32,1.0,2.0,76,0.00,,,0.00,Wunderground v.1.15,2013-03-08 05:23:00,
2013-03-08 00:28:00,32.8,26.1,30.39,NNE,32,1.0,2.0,76,0.00,,,0.00,Wunderground v.1.15,2013-03-08 05:28:00,
2013-03-08 00:33:00,32.8,26.1,30.39,NNE,32,2.0,2.0,76,0.00,,,0.00,Wunderground v.1.15,2013-03-08 05:33:00,
2013-03-08 00:38:00,32.7,26.0,30.39,NNE,32,1.0,4.0,76,0.00,,,0.00,Wunderground v.1.15,2013-03-08 05:38:00,
2013-03-08 00:43:00,32.5,26.1,30.39,NNE,32,0.0,1.0,77,0.00,,,0.00,Wunderground v.1.15,2013-03-08 05:43:00,
2013-03-08 00:48:00,32.4,26.0,30.39,NNE,32,0.0,2.0,77,0.00,,,0.00,Wunderground v.1.15,2013-03-08 05:48:00,
2013-03-08 00:54:00,32.3,26.2,30.39,NNE,32,1.0,2.0,78,0.00,,,0.00,Wunderground v.1.15,2013-03-08 05:54:00,
2013-03-08 00:59:00,32.3,25.9,30.39,NNE,32,1.0,4.0,77,0.00,,,0.00,Wunderground v.1.15,2013-03-08 05:59:00,
2013-03-08 01:04:00,32.3,25.9,30.39,NNE,32,0.0,2.0,77,0.00,,,0.00,Wunderground v.1.15,2013-03-08 06:04:00,
2013-03-08 01:09:00,32.2,26.1,30.39,NNE,32,0.0,2.0,78,0.00,,,0.00,Wunderground v.1.15,2013-03-08 06:09:00,
2013-03-08 01:14:00,32.1,26.0,30.39,NNE,32,0.0,0.0,78,0.00,,,0.00,Wunderground v.1.15,2013-03-08 06:14:00,
2013-03-08 01:19:00,32.0,26.2,30.39,NNE,32,0.0,2.0,79,0.00,,,0.00,Wunderground v.1.15,2013-03-08 06:19:00,
2013-03-08 01:24:00,31.7,26.2,30.39,NNE,32,0.0,2.0,80,0.00,,,0.00,Wunderground v.1.15,2013-03-08 06:24:00,
2013-03-08 01:29:00,31.5,26.3,30.39,NNE,32,0.0,2.0,81,0.00,,,0.00,Wunderground v.1.15,2013-03-08 06:29:00,
2013-03-08 01:34:00,31.3,26.1,30.39,NNE,32,0.0,0.0,81,0.00,,,0.00,Wunderground v.1.15,2013-03-08 06:34:00,
2013-03-08 01:39:00,31.1,26.0,30.39,NNE,32,0.0,0.0,81,0.00,,,0.00,Wunderground v.1.15,2013-03-08 06:39:00,
2013-03-08 01:45:00,31.0,25.9,30.39,NNE,32,2.0,2.0,81,0.00,,,0.00,Wunderground v.1.15,2013-03-08 06:45:00,
2013-03-08 01:50:00,31.0,25.9,30.40,NNE,32,2.0,2.0,81,0.00,,,0.00,Wunderground v.1.15,2013-03-08 06:50:00,
2013-03-08 01:55:00,31.0,25.9,30.40,NNE,32,1.0,2.0,81,0.00,,,0.00,Wunderground v.1.15,2013-03-08 06:55:00,
2013-03-08 02:00:00,30.8,26.0,30.40,NNE,32,0.0,1.0,82,0.00,,,0.00,Wunderground v.1.15,2013-03-08 07:00:00,
2013-03-08 02:05:00,30.8,26.0,30.40,NNE,32,0.0,2.0,82,0.00,,,0.00,Wunderground v.1.15,2013-03-08 07:05:00,
2013-03-08 02:10:00,30.9,26.1,30.40,NNE,32,0.0,1.0,82,0.00,,,0.00,Wunderground v.1.15,2013-03-08 07:10:00,
2013-03-08 02:15:00,30.9,26.1,30.40,NNE,32,2.0,2.0,82,0.00,,,0.00,Wunderground v.1.15,2013-03-08 07:15:00,
2013-03-08 02:20:00,30.8,26.2,30.40,NNE,32,0.0,0.0,83,0.00,,,0.00,Wunderground v.1.15,2013-03-08 07:20:00,
2013-03-08 02:25:00,30.7,26.1,30.40,NNE,32,2.0,4.0,83,0.00,,,0.00,Wunderground v.1.15,2013-03-08 07:25:00,
2013-03-08 02:30:00,30.6,26.1,30.40,NNE,32,1.0,2.0,83,0.00,,,0.00,Wunderground v.1.15,2013-03-08 07:30:00,
2013-03-08 02:36:00,30.5,26.0,30.39,NNE,32,1.0,3.0,83,0.00,,,0.00,Wunderground v.1.15,2013-03-08 07:36:00,
2013-03-08 02:41:00,30.5,26.0,30.40,NNE,32,1.0,1.0,83,0.00,,,0.00,Wunderground v.1.15,2013-03-08 07:41:00,
2013-03-08 02:46:00,30.5,26.0,30.39,NNE,32,1.0,2.0,83,0.00,,,0.00,Wunderground v.1.15,2013-03-08 07:46:00,
2013-03-08 02:51:00,30.4,26.1,30.39,NNE,32,0.0,1.0,84,0.00,,,0.00,Wunderground v.1.15,2013-03-08 07:51:00,
2013-03-08 02:57:00,30.3,26.0,30.39,NNE,32,0.0,1.0,84,0.00,,,0.00,Wunderground v.1.15,2013-03-08 07:57:00,
2013-03-08 03:02:00,30.1,25.8,30.39,NNE,32,1.0,2.0,84,0.00,,,0.00,Wunderground v.1.15,2013-03-08 08:02:00,
2013-03-08 03:07:00,30.0,25.8,30.39,NNE,32,1.0,2.0,84,0.00,,,0.00,Wunderground v.1.15,2013-03-08 08:07:00,
2013-03-08 03:13:00,29.9,25.7,30.39,NNE,32,0.0,1.0,84,0.00,,,0.00,Wunderground v.1.15,2013-03-08 08:13:00,
2013-03-08 03:18:00,29.7,25.5,30.40,NNE,32,0.0,1.0,84,0.00,,,0.00,Wunderground v.1.15,2013-03-08 08:18:00,
2013-03-08 03:23:00,29.3,25.4,30.40,NNE,32,0.0,0.0,85,0.00,,,0.00,Wunderground v.1.15,2013-03-08 08:23:00,
2013-03-08 03:28:00,29.1,25.4,30.40,NNE,32,0.0,0.0,86,0.00,,,0.00,Wunderground v.1.15,2013-03-08 08:28:00,
2013-03-08 03:33:00,28.9,25.2,30.40,NNE,32,0.0,0.0,86,0.00,,,0.00,Wunderground v.1.15,2013-03-08 08:33:00,
2013-03-08 03:38:00,28.7,25.3,30.40,NNE,32,0.0,2.0,87,0.00,,,0.00,Wunderground v.1.15,2013-03-08 08:38:00,
2013-03-08 03:43:00,28.7,25.3,30.40,NNE,32,1.0,1.0,87,0.00,,,0.00,Wunderground v.1.15,2013-03-08 08:43:00,
2013-03-08 03:49:00,28.7,25.0,30.40,NNE,32,0.0,3.0,86,0.00,,,0.00,Wunderground v.1.15,2013-03-08 08:49:00,
2013-03-08 03:54:00,28.7,24.8,30.40,NNE,32,0.0,1.0,85,0.00,,,0.00,Wunderground v.1.15,2013-03-08 08:54:00,
2013-03-08 03:59:00,28.5,24.6,30.40,NNE,32,1.0,2.0,85,0.00,,,0.00,Wunderground v.1.15,2013-03-08 08:59:00,
2013-03-08 04:04:00,28.4,24.5,30.40,NNE,32,1.0,2.0,85,0.00,,,0.00,Wunderground v.1.15,2013-03-08 09:04:00,
2013-03-08 04:09:00,28.3,24.6,30.40,NNE,32,1.0,2.0,86,0.00,,,0.00,Wunderground v.1.15,2013-03-08 09:09:00,
2013-03-08 04:14:00,28.4,24.7,30.40,NNE,32,2.0,2.0,86,0.00,,,0.00,Wunderground v.1.15,2013-03-08 09:14:00,
2013-03-08 04:19:00,28.4,24.7,30.40,NNE,32,1.0,4.0,86,0.00,,,0.00,Wunderground v.1.15,2013-03-08 09:19:00,
2013-03-08 04:24:00,28.4,24.7,30.40,NNE,32,2.0,4.0,86,0.00,,,0.00,Wunderground v.1.15,2013-03-08 09:24:00,
2013-03-08 04:29:00,28.1,24.7,30.41,NNE,32,3.0,4.0,87,0.00,,,0.00,Wunderground v.1.15,2013-03-08 09:29:00,
2013-03-08 04:35:00,27.9,24.5,30.41,NNE,32,1.0,4.0,87,0.00,,,0.00,Wunderground v.1.15,2013-03-08 09:35:00,
2013-03-08 04:40:00,27.7,24.3,30.41,NNE,32,1.0,3.0,87,0.00,,,0.00,Wunderground v.1.15,2013-03-08 09:40:00,
2013-03-08 04:45:00,27.6,24.2,30.41,NNE,32,1.0,4.0,87,0.00,,,0.00,Wunderground v.1.15,2013-03-08 09:45:00,
2013-03-08 04:50:00,27.7,24.3,30.41,NNE,32,2.0,4.0,87,0.00,,,0.00,Wunderground v.1.15,2013-03-08 09:50:00,
2013-03-08 04:55:00,27.7,24.1,30.41,NNE,32,4.0,5.0,86,0.00,,,0.00,Wunderground v.1.15,2013-03-08 09:55:00,
2013-03-08 05:00:00,27.7,24.1,30.41,NNE,32,1.0,4.0,86,0.00,,,0.00,Wunderground v.1.15,2013-03-08 10:00:00,
2013-03-08 05:05:00,27.6,24.0,30.42,NNE,32,4.0,4.0,86,0.00,,,0.00,Wunderground v.1.15,2013-03-08 10:05:00,
2013-03-08 05:10:00,27.6,24.0,30.42,NNE,32,1.0,2.0,86,0.00,,,0.00,Wunderground v.1.15,2013-03-08 10:10:00,
2013-03-08 05:16:00,27.4,23.8,30.42,NNE,32,1.0,3.0,86,0.00,,,0.00,Wunderground v.1.15,2013-03-08 10:16:00,
2013-03-08 05:21:00,27.5,23.9,30.42,NNE,32,2.0,3.0,86,0.00,,,0.00,Wunderground v.1.15,2013-03-08 10:21:00,
2013-03-08 05:26:00,27.4,23.8,30.43,NNE,32,1.0,4.0,86,0.00,,,0.00,Wunderground v.1.15,2013-03-08 10:26:00,
2013-03-08 05:31:00,27.3,23.7,30.43,NNE,32,2.0,3.0,86,0.00,,,0.00,Wunderground v.1.15,2013-03-08 10:31:00,
2013-03-08 05:36:00,27.2,23.6,30.43,NNE,32,0.0,3.0,86,0.00,,,0.00,Wunderground v.1.15,2013-03-08 10:36:00,
2013-03-08 05:41:00,27.1,23.5,30.43,NNE,32,0.0,2.0,86,0.00,,,0.00,Wunderground v.1.15,2013-03-08 10:41:00,
2013-03-08 05:46:00,27.0,23.4,30.44,NNE,32,0.0,2.0,86,0.00,,,0.00,Wunderground v.1.15,2013-03-08 10:46:00,
2013-03-08 05:51:00,26.9,23.5,30.44,NNE,32,0.0,0.0,87,0.00,,,0.00,Wunderground v.1.15,2013-03-08 10:51:00,
2013-03-08 05:56:00,26.7,23.4,30.44,NNE,32,0.0,0.0,87,0.00,,,0.00,Wunderground v.1.15,2013-03-08 10:56:00,
2013-03-08 06:01:00,26.6,23.3,30.44,NNE,32,0.0,1.0,87,0.00,,,0.00,Wunderground v.1.15,2013-03-08 11:01:00,
2013-03-08 06:06:00,26.6,23.3,30.44,NNE,32,0.0,1.0,87,0.00,,,0.00,Wunderground v.1.15,2013-03-08 11:06:00,
2013-03-08 06:11:00,26.5,23.2,30.44,NNE,32,2.0,2.0,87,0.00,,,0.00,Wunderground v.1.15,2013-03-08 11:11:00,
2013-03-08 06:16:00,26.6,23.3,30.44,NNE,32,5.0,5.0,87,0.00,,,0.00,Wunderground v.1.15,2013-03-08 11:16:00,
2013-03-08 06:21:00,26.6,23.3,30.44,NNE,32,0.0,3.0,87,0.00,,,0.00,Wunderground v.1.15,2013-03-08 11:21:00,
2013-03-08 06:26:00,26.5,23.2,30.44,NNE,32,0.0,3.0,87,0.00,,,0.00,Wunderground v.1.15,2013-03-08 11:26:00,
2013-03-08 06:31:00,26.4,23.1,30.44,NNE,32,1.0,2.0,87,0.00,,,0.00,Wunderground v.1.15,2013-03-08 11:31:00,
2013-03-08 06:36:00,26.2,22.9,30.44,NNE,32,0.0,2.0,87,0.00,,,0.00,Wunderground v.1.15,2013-03-08 11:36:00,
2013-03-08 06:41:00,26.0,22.7,30.44,NNE,32,1.0,1.0,87,0.00,,,0.00,Wunderground v.1.15,2013-03-08 11:41:00,
2013-03-08 06:46:00,25.8,22.5,30.44,NNE,32,1.0,2.0,87,0.00,,,0.00,Wunderground v.1.15,2013-03-08 11:46:00,
2013-03-08 06:51:00,25.7,22.6,30.44,NNE,32,0.0,3.0,88,0.00,,,0.00,Wunderground v.1.15,2013-03-08 11:51:00,
2013-03-08 06:56:00,25.6,22.5,30.44,NNE,32,0.0,4.0,88,0.00,,,0.00,Wunderground v.1.15,2013-03-08 11:56:00,
2013-03-08 07:01:00,25.5,22.7,30.44,NNE,32,2.0,3.0,89,0.00,,,0.00,Wunderground v.1.15,2013-03-08 12:01:00,
2013-03-08 07:06:00,25.5,22.7,30.44,NNE,32,4.0,4.0,89,0.00,,,0.00,Wunderground v.1.15,2013-03-08 12:06:00,
2013-03-08 07:11:00,25.6,22.8,30.44,NE,36,2.0,4.0,89,0.00,,,0.00,Wunderground v.1.15,2013-03-08 12:11:00,
2013-03-08 07:16:00,25.7,22.9,30.44,NE,36,0.0,4.0,89,0.00,,,0.00,Wunderground v.1.15,2013-03-08 12:16:00,
2013-03-08 07:21:00,25.8,23.0,30.44,NE,36,1.0,4.0,89,0.00,,,0.00,Wunderground v.1.15,2013-03-08 12:21:00,
2013-03-08 07:26:00,25.9,23.1,30.44,NE,36,1.0,4.0,89,0.00,,,0.00,Wunderground v.1.15,2013-03-08 12:26:00,
2013-03-08 07:31:00,26.0,23.2,30.44,NE,36,2.0,4.0,89,0.00,,,0.00,Wunderground v.1.15,2013-03-08 12:31:00,
2013-03-08 07:36:00,26.2,23.4,30.44,NE,37,1.0,5.0,89,0.00,,,0.00,Wunderground v.1.15,2013-03-08 12:36:00,
2013-03-08 07:41:00,26.4,23.6,30.44,NE,42,4.0,5.0,89,0.00,,,0.00,Wunderground v.1.15,2013-03-08 12:41:00,
2013-03-08 07:46:00,26.7,23.6,30.44,NE,43,2.0,5.0,88,0.00,,,0.00,Wunderground v.1.15,2013-03-08 12:46:00,
2013-03-08 07:51:00,26.9,23.8,30.44,NE,46,5.0,5.0,88,0.00,,,0.00,Wunderground v.1.15,2013-03-08 12:51:00,
2013-03-08 07:56:00,27.1,24.0,30.44,NE,55,4.0,6.0,88,0.00,,,0.00,Wunderground v.1.15,2013-03-08 12:56:00,
2013-03-08 08:01:00,27.4,24.3,30.44,ENE,61,5.0,5.0,88,0.00,,,0.00,Wunderground v.1.15,2013-03-08 13:01:00,
2013-03-08 08:06:00,27.7,24.3,30.44,ENE,74,5.0,6.0,87,0.00,,,0.00,Wunderground v.1.15,2013-03-08 13:06:00,
2013-03-08 08:11:00,28.1,24.7,30.45,ENE,73,5.0,5.0,87,0.00,,,0.00,Wunderground v.1.15,2013-03-08 13:11:00,
2013-03-08 08:16:00,28.5,24.8,30.45,ENE,74,4.0,7.0,86,0.00,,,0.00,Wunderground v.1.15,2013-03-08 13:16:00,
2013-03-08 08:21:00,28.9,25.2,30.45,ENE,74,3.0,4.0,86,0.00,,,0.00,Wunderground v.1.15,2013-03-08 13:21:00,
2013-03-08 08:26:00,29.3,25.6,30.46,ENE,74,2.0,5.0,86,0.00,,,0.00,Wunderground v.1.15,2013-03-08 13:26:00,
2013-03-08 08:31:00,29.9,25.9,30.46,ENE,74,2.0,4.0,85,0.00,,,0.00,Wunderground v.1.15,2013-03-08 13:31:00,
2013-03-08 08:36:00,30.3,26.0,30.46,ENE,74,2.0,5.0,84,0.00,,,0.00,Wunderground v.1.15,2013-03-08 13:36:00,
2013-03-08 08:41:00,30.9,26.3,30.46,ENE,74,1.0,3.0,83,0.00,,,0.00,Wunderground v.1.15,2013-03-08 13:41:00,
2013-03-08 08:46:00,31.5,26.6,30.47,ENE,74,3.0,5.0,82,0.00,,,0.00,Wunderground v.1.15,2013-03-08 13:46:00,
2013-03-08 08:51:00,31.9,26.7,30.47,ENE,74,2.0,5.0,81,0.00,,,0.00,Wunderground v.1.15,2013-03-08 13:51:00,
2013-03-08 08:56:00,32.2,26.7,30.47,ENE,74,1.0,5.0,80,0.00,,,0.00,Wunderground v.1.15,2013-03-08 13:56:00,
2013-03-08 09:01:00,32.8,27.3,30.47,ENE,74,1.0,4.0,80,0.00,,,0.00,Wunderground v.1.15,2013-03-08 14:01:00,
2013-03-08 09:06:00,33.3,27.2,30.47,ENE,74,2.0,4.0,78,0.00,,,0.00,Wunderground v.1.15,2013-03-08 14:06:00,
2013-03-08 09:11:00,33.7,27.6,30.47,ENE,74,0.0,1.0,78,0.00,,,0.00,Wunderground v.1.15,2013-03-08 14:11:00,
2013-03-08 09:16:00,34.0,26.9,30.47,ENE,74,1.0,5.0,75,0.00,,,0.00,Wunderground v.1.15,2013-03-08 14:16:00,
2013-03-08 09:21:00,34.2,26.4,30.47,East,89,5.0,6.0,73,0.00,,,0.00,Wunderground v.1.15,2013-03-08 14:21:00,
2013-03-08 09:26:00,33.9,25.8,30.47,East,82,6.0,8.0,72,0.00,,,0.00,Wunderground v.1.15,2013-03-08 14:26:00,
2013-03-08 09:32:00,33.7,25.6,30.47,ESE,102,5.0,8.0,72,0.00,,,0.00,Wunderground v.1.15,2013-03-08 14:32:00,
2013-03-08 09:36:00,33.7,25.6,30.48,ENE,75,5.0,9.0,72,0.00,,,0.00,Wunderground v.1.15,2013-03-08 14:36:00,
2013-03-08 09:42:00,33.7,25.3,30.48,East,98,6.0,9.0,71,0.00,,,0.00,Wunderground v.1.15,2013-03-08 14:42:00,
2013-03-08 09:47:00,33.4,25.0,30.48,ENE,65,8.0,10.0,71,0.00,,,0.00,Wunderground v.1.15,2013-03-08 14:47:00,
2013-03-08 09:52:00,33.6,25.5,30.48,ESE,104,5.0,8.0,72,0.00,,,0.00,Wunderground v.1.15,2013-03-08 14:52:00,
2013-03-08 09:57:00,33.9,25.8,30.48,East,94,4.0,9.0,72,0.00,,,0.00,Wunderground v.1.15,2013-03-08 14:57:00,
2013-03-08 10:02:00,33.9,25.5,30.48,East,80,6.0,9.0,71,0.00,,,0.00,Wunderground v.1.15,2013-03-08 15:02:00,
2013-03-08 10:07:00,33.7,25.6,30.48,ENE,77,8.0,10.0,72,0.00,,,0.00,Wunderground v.1.15,2013-03-08 15:07:00,
2013-03-08 10:12:00,33.9,25.8,30.48,East,80,6.0,10.0,72,0.00,,,0.00,Wunderground v.1.15,2013-03-08 15:12:00,
2013-03-08 10:17:00,34.1,26.0,30.48,ESE,107,4.0,10.0,72,0.00,,,0.00,Wunderground v.1.15,2013-03-08 15:17:00,
2013-03-08 10:22:00,34.5,26.4,30.48,ESE,118,5.0,7.0,72,0.00,,,0.00,Wunderground v.1.15,2013-03-08 15:22:00,
2013-03-08 10:27:00,35.2,27.1,30.48,SE,128,5.0,9.0,72,0.00,,,0.00,Wunderground v.1.15,2013-03-08 15:27:00,
2013-03-08 10:32:00,35.2,26.7,30.48,ESE,123,6.0,9.0,71,0.00,,,0.00,Wunderground v.1.15,2013-03-08 15:32:00,
2013-03-08 10:37:00,35.0,26.5,30.48,SE,137,6.0,11.0,71,0.00,,,0.00,Wunderground v.1.15,2013-03-08 15:37:00,
2013-03-08 10:42:00,35.1,27.0,30.48,ESE,115,5.0,10.0,72,0.00,,,0.00,Wunderground v.1.15,2013-03-08 15:42:00,
2013-03-08 10:47:00,35.3,27.2,30.48,ESE,111,8.0,12.0,72,0.00,,,0.00,Wunderground v.1.15,2013-03-08 15:47:00,
2013-03-08 10:52:00,35.9,27.7,30.48,East,98,2.0,7.0,72,0.00,,,0.00,Wunderground v.1.15,2013-03-08 15:52:00,
2013-03-08 10:57:00,36.2,27.4,30.48,ESE,105,4.0,8.0,70,0.00,,,0.00,Wunderground v.1.15,2013-03-08 15:57:00,
2013-03-08 11:02:00,36.6,28.1,30.48,SE,130,4.0,9.0,71,0.00,,,0.00,Wunderground v.1.15,2013-03-08 16:02:00,
2013-03-08 11:07:00,36.3,27.1,30.48,East,91,5.0,10.0,69,0.00,,,0.00,Wunderground v.1.15,2013-03-08 16:07:00,
2013-03-08 11:12:00,35.6,26.1,30.48,East,88,6.0,10.0,68,0.00,,,0.00,Wunderground v.1.15,2013-03-08 16:12:00,
2013-03-08 11:17:00,35.4,26.2,30.47,East,92,7.0,12.0,69,0.00,,,0.00,Wunderground v.1.15,2013-03-08 16:17:00,
2013-03-08 11:22:00,35.6,26.1,30.47,East,92,6.0,9.0,68,0.00,,,0.00,Wunderground v.1.15,2013-03-08 16:22:00,
2013-03-08 11:27:00,35.8,25.9,30.47,East,92,8.0,9.0,67,0.00,,,0.00,Wunderground v.1.15,2013-03-08 16:27:00,
2013-03-08 11:32:00,36.2,26.3,30.47,SE,138,6.0,7.0,67,0.00,,,0.00,Wunderground v.1.15,2013-03-08 16:32:00,
2013-03-08 11:37:00,36.4,25.7,30.47,SE,130,2.0,10.0,65,0.00,,,0.00,Wunderground v.1.15,2013-03-08 16:37:00,
2013-03-08 11:42:00,36.6,25.9,30.47,SE,135,7.0,9.0,65,0.00,,,0.00,Wunderground v.1.15,2013-03-08 16:42:00,
2013-03-08 11:47:00,36.6,25.2,30.47,SE,127,9.0,10.0,63,0.00,,,0.00,Wunderground v.1.15,2013-03-08 16:47:00,
2013-03-08 11:52:00,36.4,25.4,30.46,SSE,157,7.0,10.0,64,0.00,,,0.00,Wunderground v.1.15,2013-03-08 16:52:00,
2013-03-08 11:57:00,36.6,25.6,30.46,ESE,121,6.0,11.0,64,0.00,,,0.00,Wunderground v.1.15,2013-03-08 16:57:00,
2013-03-08 12:02:00,36.7,25.3,30.46,SE,135,2.0,7.0,63,0.00,,,0.00,Wunderground v.1.15,2013-03-08 17:02:00,
2013-03-08 12:07:00,37.2,25.8,30.46,ESE,121,5.0,7.0,63,0.00,,,0.00,Wunderground v.1.15,2013-03-08 17:07:00,
2013-03-08 12:12:00,37.5,25.7,30.46,SE,137,8.0,9.0,62,0.00,,,0.00,Wunderground v.1.15,2013-03-08 17:12:00,
2013-03-08 12:17:00,37.0,25.2,30.47,SSE,151,4.0,10.0,62,0.00,,,0.00,Wunderground v.1.15,2013-03-08 17:17:00,
2013-03-08 12:22:00,37.1,25.7,30.46,SE,141,5.0,7.0,63,0.00,,,0.00,Wunderground v.1.15,2013-03-08 17:22:00,
2013-03-08 12:27:00,36.7,25.3,30.47,ESE,105,7.0,11.0,63,0.00,,,0.00,Wunderground v.1.15,2013-03-08 17:27:00,
2013-03-08 12:32:00,36.8,25.4,30.47,SSE,149,7.0,9.0,63,0.00,,,0.00,Wunderground v.1.15,2013-03-08 17:32:00,
2013-03-08 12:37:00,36.9,25.9,30.47,SE,140,5.0,9.0,64,0.00,,,0.00,Wunderground v.1.15,2013-03-08 17:37:00,
2013-03-08 12:42:00,37.4,26.3,30.47,SE,134,6.0,7.0,64,0.00,,,0.00,Wunderground v.1.15,2013-03-08 17:42:00,
2013-03-08 12:47:00,37.6,25.7,30.47,SE,146,7.0,10.0,62,0.00,,,0.00,Wunderground v.1.15,2013-03-08 17:47:00,
2013-03-08 12:52:00,37.7,25.8,30.47,SE,126,4.0,5.0,62,0.00,,,0.00,Wunderground v.1.15,2013-03-08 17:52:00,
2013-03-08 12:57:00,38.3,26.8,30.47,SSE,153,2.0,7.0,63,0.00,,,0.00,Wunderground v.1.15,2013-03-08 17:57:00,
2013-03-08 13:02:00,38.7,26.4,30.46,SSE,161,0.0,5.0,61,0.00,,,0.00,Wunderground v.1.15,2013-03-08 18:02:00,
2013-03-08 13:07:00,39.1,25.6,30.46,SE,137,0.0,6.0,58,0.00,,,0.00,Wunderground v.1.15,2013-03-08 18:07:00,
2013-03-08 13:12:00,39.5,25.9,30.46,SSE,147,2.0,7.0,58,0.00,,,0.00,Wunderground v.1.15,2013-03-08 18:12:00,
2013-03-08 13:17:00,39.2,25.6,30.46,SSE,153,1.0,9.0,58,0.00,,,0.00,Wunderground v.1.15,2013-03-08 18:17:00,
2013-03-08 13:22:00,39.1,25.6,30.46,SSE,153,5.0,5.0,58,0.00,,,0.00,Wunderground v.1.15,2013-03-08 18:22:00,
2013-03-08 13:27:00,38.8,25.7,30.46,SE,139,3.0,8.0,59,0.00,,,0.00,Wunderground v.1.15,2013-03-08 18:27:00,
2013-03-08 13:32:00,38.7,25.2,30.46,SSE,168,2.0,5.0,58,0.00,,,0.00,Wunderground v.1.15,2013-03-08 18:32:00,
2013-03-08 13:37:00,38.7,25.2,30.45,SSE,164,4.0,8.0,58,0.00,,,0.00,Wunderground v.1.15,2013-03-08 18:37:00,
2013-03-08 13:42:00,38.6,25.5,30.45,South,175,5.0,7.0,59,0.00,,,0.00,Wunderground v.1.15,2013-03-08 18:42:00,
2013-03-08 13:47:00,39.1,26.0,30.45,South,178,1.0,7.0,59,0.00,,,0.00,Wunderground v.1.15,2013-03-08 18:47:00,
2013-03-08 13:52:00,39.2,25.6,30.45,SSE,167,4.0,7.0,58,0.00,,,0.00,Wunderground v.1.15,2013-03-08 18:52:00,
2013-03-08 13:57:00,39.5,25.9,30.45,SSE,151,4.0,7.0,58,0.00,,,0.00,Wunderground v.1.15,2013-03-08 18:57:00,
2013-03-08 14:02:00,39.5,25.5,30.44,ESE,112,4.0,8.0,57,0.00,,,0.00,Wunderground v.1.15,2013-03-08 19:02:00,
2013-03-08 14:07:00,39.5,25.9,30.44,SE,124,2.0,8.0,58,0.00,,,0.00,Wunderground v.1.15,2013-03-08 19:07:00,
2013-03-08 14:12:00,39.1,24.7,30.44,ESE,123,5.0,8.0,56,0.00,,,0.00,Wunderground v.1.15,2013-03-08 19:12:00,
2013-03-08 14:17:00,39.1,25.1,30.44,East,90,4.0,8.0,57,0.00,,,0.00,Wunderground v.1.15,2013-03-08 19:17:00,
2013-03-08 14:22:00,39.2,25.6,30.44,ESE,117,2.0,6.0,58,0.00,,,0.00,Wunderground v.1.15,2013-03-08 19:22:00,
2013-03-08 14:27:00,39.5,25.9,30.43,ENE,73,2.0,7.0,58,0.00,,,0.00,Wunderground v.1.15,2013-03-08 19:27:00,
2013-03-08 14:32:00,39.9,25.9,30.43,ESE,121,0.0,5.0,57,0.00,,,0.00,Wunderground v.1.15,2013-03-08 19:32:00,
2013-03-08 14:37:00,39.8,25.4,30.43,East,94,5.0,8.0,56,0.00,,,0.00,Wunderground v.1.15,2013-03-08 19:37:00,
2013-03-08 14:42:00,39.8,25.4,30.42,ESE,123,3.0,7.0,56,0.00,,,0.00,Wunderground v.1.15,2013-03-08 19:42:00,
2013-03-08 14:47:00,39.8,24.9,30.42,East,92,4.0,7.0,55,0.00,,,0.00,Wunderground v.1.15,2013-03-08 19:47:00,
2013-03-08 14:52:00,39.6,25.2,30.42,ESE,105,5.0,11.0,56,0.00,,,0.00,Wunderground v.1.15,2013-03-08 19:52:00,
2013-03-08 14:57:00,39.6,25.2,30.42,SE,131,1.0,11.0,56,0.00,,,0.00,Wunderground v.1.15,2013-03-08 19:57:00,
2013-03-08 15:02:00,39.7,25.3,30.42,East,99,3.0,9.0,56,0.00,,,0.00,Wunderground v.1.15,2013-03-08 20:02:00,
2013-03-08 15:07:00,39.6,24.7,30.42,East,88,2.0,9.0,55,0.00,,,0.00,Wunderground v.1.15,2013-03-08 20:07:00,
2013-03-08 15:12:00,39.6,25.6,30.42,ESE,112,5.0,8.0,57,0.00,,,0.00,Wunderground v.1.15,2013-03-08 20:12:00,
2013-03-08 15:17:00,39.8,25.8,30.42,East,100,5.0,9.0,57,0.00,,,0.00,Wunderground v.1.15,2013-03-08 20:17:00,
2013-03-08 15:22:00,39.8,25.4,30.43,ESE,107,0.0,5.0,56,0.00,,,0.00,Wunderground v.1.15,2013-03-08 20:22:00,
2013-03-08 15:27:00,39.7,24.8,30.42,ESE,122,6.0,9.0,55,0.00,,,0.00,Wunderground v.1.15,2013-03-08 20:27:00,
2013-03-08 15:32:00,40.0,26.0,30.42,ESE,117,5.0,10.0,57,0.00,,,0.00,Wunderground v.1.15,2013-03-08 20:32:00,
2013-03-08 15:37:00,40.0,26.8,30.42,ENE,68,6.0,10.0,59,0.00,,,0.00,Wunderground v.1.15,2013-03-08 20:37:00,
2013-03-08 15:42:00,40.0,26.0,30.42,NE,36,8.0,9.0,57,0.00,,,0.00,Wunderground v.1.15,2013-03-08 20:42:00,
2013-03-08 15:47:00,39.6,25.6,30.41,East,101,6.0,9.0,57,0.00,,,0.00,Wunderground v.1.15,2013-03-08 20:47:00,
2013-03-08 15:52:00,39.8,26.6,30.41,East,83,6.0,8.0,59,0.00,,,0.00,Wunderground v.1.15,2013-03-08 20:52:00,
2013-03-08 15:57:00,39.6,26.4,30.41,ESE,123,3.0,9.0,59,0.00,,,0.00,Wunderground v.1.15,2013-03-08 20:57:00,
2013-03-08 16:02:00,40.1,26.1,30.40,SE,144,7.0,8.0,57,0.00,,,0.00,Wunderground v.1.15,2013-03-08 21:02:00,
2013-03-08 16:07:00,39.9,25.9,30.40,ESE,114,5.0,10.0,57,0.00,,,0.00,Wunderground v.1.15,2013-03-08 21:07:00,
2013-03-08 16:12:00,39.5,25.9,30.39,ESE,111,7.0,12.0,58,0.00,,,0.00,Wunderground v.1.15,2013-03-08 21:12:00,
2013-03-08 16:17:00,39.3,25.3,30.39,East,101,6.0,12.0,57,0.00,,,0.00,Wunderground v.1.15,2013-03-08 21:17:00,
2013-03-08 16:22:00,39.5,25.9,30.39,East,96,10.0,10.0,58,0.00,,,0.00,Wunderground v.1.15,2013-03-08 21:22:00,
2013-03-08 16:27:00,39.1,25.6,30.39,ESE,102,8.0,10.0,58,0.00,,,0.00,Wunderground v.1.15,2013-03-08 21:27:00,
2013-03-08 16:32:00,39.3,26.2,30.39,East,89,7.0,9.0,59,0.00,,,0.00,Wunderground v.1.15,2013-03-08 21:32:00,
2013-03-08 16:37:00,39.3,26.2,30.39,ESE,110,6.0,11.0,59,0.00,,,0.00,Wunderground v.1.15,2013-03-08 21:37:00,
2013-03-08 16:42:00,39.3,25.7,30.39,ESE,107,7.0,10.0,58,0.00,,,0.00,Wunderground v.1.15,2013-03-08 21:42:00,
2013-03-08 16:47:00,39.3,25.7,30.39,ESE,119,7.0,10.0,58,0.00,,,0.00,Wunderground v.1.15,2013-03-08 21:47:00,
2013-03-08 16:52:00,39.3,25.7,30.39,ESE,103,5.0,10.0,58,0.00,,,0.00,Wunderground v.1.15,2013-03-08 21:52:00,
2013-03-08 16:57:00,39.6,26.0,30.39,ENE,69,4.0,10.0,58,0.00,,,0.00,Wunderground v.1.15,2013-03-08 21:57:00,
2013-03-08 17:02:00,39.6,26.0,30.39,ENE,76,4.0,7.0,58,0.00,,,0.00,Wunderground v.1.15,2013-03-08 22:02:00,
2013-03-08 17:07:00,39.7,26.5,30.39,ESE,108,5.0,10.0,59,0.00,,,0.00,Wunderground v.1.15,2013-03-08 22:07:00,
2013-03-08 17:12:00,39.7,26.5,30.39,SE,126,3.0,6.0,59,0.00,,,0.00,Wunderground v.1.15,2013-03-08 22:12:00,
2013-03-08 17:17:00,39.5,26.3,30.39,ESE,114,2.0,9.0,59,0.00,,,0.00,Wunderground v.1.15,2013-03-08 22:17:00,
2013-03-08 17:22:00,39.3,26.2,30.39,ESE,107,8.0,9.0,59,0.00,,,0.00,Wunderground v.1.15,2013-03-08 22:22:00,
2013-03-08 17:27:00,39.1,26.4,30.39,East,83,7.0,9.0,60,0.00,,,0.00,Wunderground v.1.15,2013-03-08 22:27:00,
2013-03-08 17:32:00,38.9,26.6,30.38,East,92,9.0,10.0,61,0.00,,,0.00,Wunderground v.1.15,2013-03-08 22:32:00,
2013-03-08 17:37:00,38.8,26.5,30.38,East,97,5.0,13.0,61,0.00,,,0.00,Wunderground v.1.15,2013-03-08 22:37:00,
2013-03-08 17:42:00,38.9,27.0,30.38,East,90,6.0,8.0,62,0.00,,,0.00,Wunderground v.1.15,2013-03-08 22:42:00,
2013-03-08 17:47:00,38.9,27.0,30.38,ENE,71,7.0,12.0,62,0.00,,,0.00,Wunderground v.1.15,2013-03-08 22:47:00,
2013-03-08 17:52:00,38.7,26.8,30.38,East,99,7.0,9.0,62,0.00,,,0.00,Wunderground v.1.15,2013-03-08 22:52:00,
2013-03-08 17:57:00,38.7,26.8,30.39,East,84,5.0,12.0,62,0.00,,,0.00,Wunderground v.1.15,2013-03-08 22:57:00,
2013-03-08 18:02:00,38.7,26.8,30.39,East,81,6.0,8.0,62,0.00,,,0.00,Wunderground v.1.15,2013-03-08 23:02:00,
2013-03-08 18:07:00,38.7,26.8,30.38,ENE,76,8.0,11.0,62,0.00,,,0.00,Wunderground v.1.15,2013-03-08 23:07:00,
2013-03-08 18:12:00,38.5,26.6,30.38,ESE,107,5.0,11.0,62,0.00,,,0.00,Wunderground v.1.15,2013-03-08 23:12:00,
2013-03-08 18:17:00,38.4,26.5,30.39,East,80,6.0,11.0,62,0.00,,,0.00,Wunderground v.1.15,2013-03-08 23:17:00,
2013-03-08 18:22:00,38.3,26.8,30.38,East,86,5.0,6.0,63,0.00,,,0.00,Wunderground v.1.15,2013-03-08 23:22:00,
2013-03-08 18:27:00,38.0,26.9,30.38,East,84,6.0,8.0,64,0.00,,,0.00,Wunderground v.1.15,2013-03-08 23:27:00,
2013-03-08 18:32:00,37.9,26.8,30.38,ENE,67,7.0,7.0,64,0.00,,,0.00,Wunderground v.1.15,2013-03-08 23:32:00,
2013-03-08 18:37:00,37.7,27.0,30.38,ENE,78,6.0,8.0,65,0.00,,,0.00,Wunderground v.1.15,2013-03-08 23:37:00,
2013-03-08 18:42:00,37.5,26.8,30.38,East,79,6.0,7.0,65,0.00,,,0.00,Wunderground v.1.15,2013-03-08 23:42:00,
2013-03-08 18:47:00,37.3,27.0,30.39,ENE,74,3.0,7.0,66,0.00,,,0.00,Wunderground v.1.15,2013-03-08 23:47:00,
2013-03-08 18:52:00,37.1,26.8,30.39,East,98,6.0,8.0,66,0.00,,,0.00,Wunderground v.1.15,2013-03-08 23:52:00,
2013-03-08 18:57:00,36.9,27.0,30.39,East,90,5.0,8.0,67,0.00,,,0.00,Wunderground v.1.15,2013-03-08 23:57:00,
2013-03-08 19:02:00,36.8,26.5,30.38,East,86,5.0,7.0,66,0.00,,,0.00,Wunderground v.1.15,2013-03-09 00:02:00,
2013-03-08 19:07:00,36.7,26.8,30.39,East,94,0.0,7.0,67,0.00,,,0.00,Wunderground v.1.15,2013-03-09 00:07:00,
2013-03-08 19:12:00,36.5,26.9,30.39,East,98,2.0,5.0,68,0.00,,,0.00,Wunderground v.1.15,2013-03-09 00:12:00,
2013-03-08 19:17:00,36.4,26.8,30.39,East,98,1.0,5.0,68,0.00,,,0.00,Wunderground v.1.15,2013-03-09 00:17:00,
2013-03-08 19:22:00,36.2,27.0,30.40,East,98,4.0,4.0,69,0.00,,,0.00,Wunderground v.1.15,2013-03-09 00:22:00,
2013-03-08 19:27:00,36.0,26.8,30.40,East,98,2.0,5.0,69,0.00,,,0.00,Wunderground v.1.15,2013-03-09 00:27:00,
2013-03-08 19:32:00,35.9,27.1,30.40,East,98,2.0,4.0,70,0.00,,,0.00,Wunderground v.1.15,2013-03-09 00:32:00,
2013-03-08 19:37:00,35.8,27.0,30.40,East,98,1.0,5.0,70,0.00,,,0.00,Wunderground v.1.15,2013-03-09 00:37:00,
2013-03-08 19:42:00,35.7,26.9,30.40,East,98,5.0,5.0,70,0.00,,,0.00,Wunderground v.1.15,2013-03-09 00:42:00,
2013-03-08 19:48:00,35.6,26.8,30.39,East,88,5.0,6.0,70,0.00,,,0.00,Wunderground v.1.15,2013-03-09 00:48:00,
2013-03-08 19:53:00,35.4,26.6,30.39,East,88,5.0,6.0,70,0.00,,,0.00,Wunderground v.1.15,2013-03-09 00:53:00,
2013-03-08 19:58:00,35.2,26.7,30.39,East,94,2.0,6.0,71,0.00,,,0.00,Wunderground v.1.15,2013-03-09 00:58:00,
2013-03-08 20:03:00,35.0,26.5,30.39,East,90,4.0,5.0,71,0.00,,,0.00,Wunderground v.1.15,2013-03-09 01:03:00,
2013-03-08 20:08:00,34.9,26.8,30.40,East,90,1.0,5.0,72,0.00,,,0.00,Wunderground v.1.15,2013-03-09 01:08:00,
2013-03-08 20:13:00,34.8,26.7,30.40,East,90,2.0,2.0,72,0.00,,,0.00,Wunderground v.1.15,2013-03-09 01:13:00,
2013-03-08 20:18:00,34.7,26.6,30.40,East,90,3.0,5.0,72,0.00,,,0.00,Wunderground v.1.15,2013-03-09 01:18:00,
2013-03-08 20:23:00,34.5,26.4,30.41,East,90,1.0,4.0,72,0.00,,,0.00,Wunderground v.1.15,2013-03-09 01:23:00,
2013-03-08 20:28:00,34.4,26.6,30.41,East,90,2.0,4.0,73,0.00,,,0.00,Wunderground v.1.15,2013-03-09 01:28:00,
2013-03-08 20:33:00,34.3,26.5,30.41,East,90,4.0,4.0,73,0.00,,,0.00,Wunderground v.1.15,2013-03-09 01:33:00,
2013-03-08 20:38:00,34.2,26.4,30.41,East,90,3.0,4.0,73,0.00,,,0.00,Wunderground v.1.15,2013-03-09 01:38:00,
2013-03-08 20:43:00,34.1,26.3,30.40,East,90,2.0,3.0,73,0.00,,,0.00,Wunderground v.1.15,2013-03-09 01:43:00,
2013-03-08 20:48:00,33.9,26.2,30.40,East,90,2.0,3.0,73,0.00,,,0.00,Wunderground v.1.15,2013-03-09 01:48:00,
2013-03-08 20:53:00,33.8,26.1,30.40,East,90,2.0,4.0,73,0.00,,,0.00,Wunderground v.1.15,2013-03-09 01:53:00,
2013-03-08 20:58:00,33.7,26.3,30.40,East,90,2.0,4.0,74,0.00,,,0.00,Wunderground v.1.15,2013-03-09 01:58:00,
2013-03-08 21:03:00,33.4,26.0,30.40,East,90,4.0,5.0,74,0.00,,,0.00,Wunderground v.1.15,2013-03-09 02:03:00,
2013-03-08 21:08:00,33.3,25.9,30.39,East,90,4.0,5.0,74,0.00,,,0.00,Wunderground v.1.15,2013-03-09 02:08:00,
2013-03-08 21:13:00,33.1,26.0,30.39,ENE,78,4.0,6.0,75,0.00,,,0.00,Wunderground v.1.15,2013-03-09 02:13:00,
2013-03-08 21:18:00,33.0,25.9,30.39,ENE,78,6.0,7.0,75,0.00,,,0.00,Wunderground v.1.15,2013-03-09 02:18:00,
2013-03-08 21:23:00,32.8,25.7,30.38,ENE,78,4.0,7.0,75,0.00,,,0.00,Wunderground v.1.15,2013-03-09 02:23:00,
2013-03-08 21:28:00,32.8,26.1,30.39,ENE,78,4.0,7.0,76,0.00,,,0.00,Wunderground v.1.15,2013-03-09 02:28:00,
2013-03-08 21:33:00,32.7,26.0,30.38,ENE,78,5.0,6.0,76,0.00,,,0.00,Wunderground v.1.15,2013-03-09 02:33:00,
2013-03-08 21:38:00,32.7,26.0,30.38,ENE,78,5.0,6.0,76,0.00,,,0.00,Wunderground v.1.15,2013-03-09 02:38:00,
2013-03-08 21:43:00,32.7,26.0,30.38,ENE,78,5.0,5.0,76,0.00,,,0.00,Wunderground v.1.15,2013-03-09 02:43:00,
2013-03-08 21:48:00,32.7,26.0,30.38,ENE,78,5.0,6.0,76,0.00,,,0.00,Wunderground v.1.15,2013-03-09 02:48:00,
2013-03-08 21:53:00,32.8,26.1,30.38,ENE,78,6.0,6.0,76,0.00,,,0.00,Wunderground v.1.15,2013-03-09 02:53:00,
2013-03-08 21:58:00,32.7,26.0,30.39,ENE,78,3.0,6.0,76,0.00,,,0.00,Wunderground v.1.15,2013-03-09 02:58:00,
2013-03-08 22:03:00,32.8,26.1,30.38,East,82,4.0,6.0,76,0.00,,,0.00,Wunderground v.1.15,2013-03-09 03:03:00,
2013-03-08 22:08:00,32.7,26.0,30.39,East,82,5.0,7.0,76,0.00,,,0.00,Wunderground v.1.15,2013-03-09 03:08:00,
2013-03-08 22:13:00,32.8,26.1,30.39,East,82,4.0,7.0,76,0.00,,,0.00,Wunderground v.1.15,2013-03-09 03:13:00,
2013-03-08 22:18:00,32.8,26.1,30.38,East,84,6.0,7.0,76,0.00,,,0.00,Wunderground v.1.15,2013-03-09 03:18:00,
2013-03-08 22:23:00,32.8,26.1,30.38,East,86,4.0,7.0,76,0.00,,,0.00,Wunderground v.1.15,2013-03-09 03:23:00,
2013-03-08 22:28:00,32.7,26.0,30.38,East,80,6.0,8.0,76,0.00,,,0.00,Wunderground v.1.15,2013-03-09 03:28:00,
2013-03-08 22:33:00,32.8,26.1,30.38,East,82,5.0,7.0,76,0.00,,,0.00,Wunderground v.1.15,2013-03-09 03:33:00,
2013-03-08 22:38:00,32.7,26.0,30.38,East,82,4.0,7.0,76,0.00,,,0.00,Wunderground v.1.15,2013-03-09 03:38:00,
2013-03-08 22:43:00,32.6,25.9,30.38,East,95,3.0,7.0,76,0.00,,,0.00,Wunderground v.1.15,2013-03-09 03:43:00,
2013-03-08 22:48:00,32.7,26.0,30.38,East,97,4.0,7.0,76,0.00,,,0.00,Wunderground v.1.15,2013-03-09 03:48:00,
2013-03-08 22:53:00,32.7,26.0,30.38,ESE,102,2.0,5.0,76,0.00,,,0.00,Wunderground v.1.15,2013-03-09 03:53:00,
2013-03-08 22:58:00,32.8,25.7,30.38,East,99,2.0,6.0,75,0.00,,,0.00,Wunderground v.1.15,2013-03-09 03:58:00,
2013-03-08 23:03:00,32.8,25.7,30.38,East,92,1.0,7.0,75,0.00,,,0.00,Wunderground v.1.15,2013-03-09 04:03:00,
2013-03-08 23:08:00,32.8,25.7,30.39,East,92,1.0,7.0,75,0.00,,,0.00,Wunderground v.1.15,2013-03-09 04:08:00,
2013-03-08 23:13:00,32.7,25.6,30.39,East,92,2.0,2.0,75,0.00,,,0.00,Wunderground v.1.15,2013-03-09 04:13:00,
2013-03-08 23:18:00,32.6,25.9,30.38,East,97,1.0,5.0,76,0.00,,,0.00,Wunderground v.1.15,2013-03-09 04:18:00,
2013-03-08 23:23:00,32.5,25.8,30.38,East,96,2.0,5.0,76,0.00,,,0.00,Wunderground v.1.15,2013-03-09 04:23:00,
2013-03-08 23:28:00,32.4,25.7,30.38,East,94,2.0,6.0,76,0.00,,,0.00,Wunderground v.1.15,2013-03-09 04:28:00,
2013-03-08 23:33:00,32.3,25.9,30.38,East,94,4.0,5.0,77,0.00,,,0.00,Wunderground v.1.15,2013-03-09 04:33:00,
2013-03-08 23:38:00,32.1,25.7,30.38,East,92,5.0,5.0,77,0.00,,,0.00,Wunderground v.1.15,2013-03-09 04:38:00,
2013-03-08 23:43:00,32.1,25.7,30.38,East,86,5.0,7.0,77,0.00,,,0.00,Wunderground v.1.15,2013-03-09 04:43:00,
2013-03-08 23:48:00,32.0,25.6,30.38,East,95,6.0,8.0,77,0.00,,,0.00,Wunderground v.1.15,2013-03-09 04:48:00,
2013-03-08 23:53:00,32.0,25.6,30.38,East,89,5.0,6.0,77,0.00,,,0.00,Wunderground v.1.15,2013-03-09 04:53:00,
2013-03-08 23:58:00,31.9,25.8,30.38,East,87,4.0,7.0,78,0.00,,,0.00,Wunderground v.1.15,2013-03-09 04:58:00,